Date String (YYYY-MM-DD hh:mm:ss) UTC,Instrument flags,Ambient pressure (hPa),Sample flow (lpm),Bypass flow (lpm),Sample temperature (°C),Ambient temperature (°C),ASC tube jacket temperature (°C),LED temperature (°C),Box temperature (°C),Sample RH (%),Span deviation,Mass concentration (μg/m³),Mass concentration (μg/m³),Mass concentration (μg/m³)
DateTimeUTC,F1_M11,P_M11,Q1_M11,Q2_M11,T1_M11,T2_M11,T3_M11,T4_M11,T5_M11,U1_M11,ZSPAN_M11,X2_M11,X0_M11,X1_M11
2022-10-24 12:00:00,,0817.9,5.01,0.00,21.9,20.6,00.0,30.7,23.9,08.1,0000.0,0001.58,0002.33,0001.49
2022-10-24 12:01:00,,0818.0,5.00,0.00,21.9,20.6,00.0,30.8,23.9,08.1,0000.0,0001.59,0002.35,0001.49
2022-10-24 12:02:00,,0818.0,5.01,0.00,21.9,20.6,00.0,30.8,23.9,08.1,0000.0,0001.59,0002.32,0001.50
2022-10-24 12:03:00,,0818.1,4.99,0.00,21.9,20.6,00.0,30.8,23.8,08.1,0000.0,0001.58,0002.20,0001.50
2022-10-24 12:04:00,,0818.0,5.00,0.00,22.0,20.6,00.0,30.8,23.9,08.1,0000.0,0001.59,0002.18,0001.50
2022-10-24 12:05:00,,0818.0,5.00,0.00,22.0,20.6,00.0,30.8,23.9,08.1,0000.0,0001.58,0002.10,0001.50
2022-10-24 12:06:00,,0818.0,5.00,0.00,22.0,20.6,00.0,30.8,23.9,08.0,0000.0,0001.58,0001.95,0001.51
2022-10-24 12:07:00,,0817.9,5.01,0.00,22.0,20.6,00.0,30.8,23.9,08.0,0000.0,0001.60,0001.97,0001.52
2022-10-24 12:08:00,,0817.8,5.00,0.00,22.0,20.5,00.0,30.8,23.9,08.0,0000.0,0001.59,0001.94,0001.52
2022-10-24 12:09:00,,0817.9,5.00,0.00,22.0,20.5,00.0,30.8,23.8,08.0,0000.0,0001.59,0001.97,0001.52
2022-10-24 12:10:00,,0817.9,5.02,0.00,22.0,20.5,00.0,30.8,23.8,08.0,0000.0,0001.60,0002.05,0001.51
2022-10-24 12:11:00,,0817.9,5.00,0.00,21.9,20.5,00.0,30.8,23.8,08.0,0000.0,0001.62,0002.61,0001.50
2022-10-24 12:12:00,,0817.9,4.98,0.00,21.9,20.4,00.0,30.8,23.8,07.9,0000.0,0001.65,0003.85,0001.50
2022-10-24 12:13:00,,0818.0,5.02,0.00,21.9,20.4,00.0,30.8,23.8,07.8,0000.0,0001.67,0003.91,0001.50
2022-10-24 12:14:00,,0818.1,5.01,0.00,21.9,20.4,00.0,30.8,23.8,07.8,0000.0,0001.65,0003.88,0001.49
2022-10-24 12:15:00,,0818.1,4.99,0.00,21.9,20.3,00.0,30.8,23.8,07.9,0000.0,0001.65,0003.87,0001.49
2022-10-24 12:16:00,,0818.0,5.00,0.00,21.9,20.3,00.0,30.8,23.8,07.9,0000.0,0001.66,0003.88,0001.49
2022-10-24 12:17:00,,0818.0,5.00,0.00,21.9,20.3,00.0,30.8,23.7,08.0,0000.0,0001.68,0004.06,0001.50
2022-10-24 12:18:00,,0818.0,5.00,0.00,21.9,20.3,00.0,30.8,23.7,07.9,0000.0,0001.71,0004.15,0001.50
2022-10-24 12:19:00,,0818.2,4.97,0.00,21.9,20.3,00.0,30.8,23.7,08.0,0000.0,0001.71,0004.15,0001.52
2022-10-24 12:20:00,,0818.3,5.01,0.00,21.9,20.8,00.0,30.8,23.9,08.0,0000.0,0001.71,0004.12,0001.52
2022-10-24 12:21:00,,0818.4,5.02,0.00,22.0,21.6,00.0,30.8,24.1,08.0,0000.0,0001.72,0004.03,0001.54
2022-10-24 12:22:00,,0818.4,5.00,0.00,22.1,22.2,00.0,30.8,24.3,07.9,0000.0,0001.70,0003.49,0001.54
2022-10-24 12:23:00,,0818.4,4.99,0.00,22.2,21.9,00.0,30.8,24.3,08.0,0000.0,0001.70,0002.29,0001.55
2022-10-24 12:24:00,,0818.4,5.01,0.00,22.2,21.7,00.0,30.9,24.3,08.0,0000.0,0001.69,0002.24,0001.56
2022-10-24 12:25:00,,0818.3,4.98,0.00,22.2,21.5,00.0,30.9,24.3,07.9,0000.0,0001.70,0002.27,0001.56
2022-10-24 12:26:00,,0818.4,5.01,0.00,22.2,21.4,00.0,30.9,24.2,07.9,0000.0,0001.72,0002.35,0001.57
2022-10-24 12:27:00,,0818.5,5.01,0.00,22.2,21.3,00.0,30.9,24.2,07.9,0000.0,0001.75,0002.46,0001.57
2022-10-24 12:28:00,,0818.6,5.00,0.00,22.2,21.2,00.0,31.0,24.2,07.9,0000.0,0001.73,0002.34,0001.56
2022-10-24 12:29:00,,0818.7,5.00,0.00,22.2,21.1,00.0,31.0,24.1,07.9,0000.0,0001.72,0002.26,0001.56
2022-10-24 12:30:00,,0818.7,5.00,0.00,22.2,21.0,00.0,31.0,24.0,07.8,0000.0,0001.73,0002.28,0001.56
2022-10-24 12:31:00,,0818.7,5.00,0.00,22.2,20.9,00.0,31.0,24.0,07.9,0000.0,0001.76,0002.42,0001.58
2022-10-24 12:32:00,,0818.8,4.99,0.00,22.2,20.8,00.0,31.0,24.0,08.0,0000.0,0001.78,0003.07,0001.59
2022-10-24 12:33:00,,0818.8,4.99,0.00,22.2,20.8,00.0,31.0,24.0,08.1,0000.0,0001.79,0003.11,0001.61
2022-10-24 12:34:00,,0818.9,5.02,0.00,22.2,20.7,00.0,31.0,23.9,08.1,0000.0,0001.79,0003.07,0001.63
2022-10-24 12:35:00,,0818.9,4.98,0.00,22.2,20.6,00.0,31.0,23.9,08.1,0000.0,0001.80,0003.09,0001.64
2022-10-24 12:36:00,,0818.9,5.02,0.00,22.1,20.5,00.0,31.0,23.9,08.1,0000.0,0001.81,0003.09,0001.65
2022-10-24 12:37:00,,0818.9,5.01,0.00,22.1,20.5,00.0,31.0,23.9,08.1,0000.0,0001.83,0003.08,0001.66
2022-10-24 12:38:00,,0818.9,5.00,0.00,22.1,20.5,00.0,31.0,23.9,08.1,0000.0,0001.83,0004.05,0001.68
2022-10-24 12:39:00,,0818.9,5.00,0.00,22.1,20.4,00.0,31.0,23.9,08.1,0000.0,0001.85,0004.21,0001.71
2022-10-24 12:40:00,,0819.0,5.00,0.00,22.1,20.4,00.0,31.0,23.8,08.1,0000.0,0001.90,0004.30,0001.73
2022-10-24 12:41:00,,0818.9,5.00,0.00,22.0,20.4,00.0,31.0,23.8,08.0,0000.0,0001.95,0004.40,0001.75
2022-10-24 12:42:00,,0818.9,5.00,0.00,22.0,20.4,00.0,31.0,23.8,08.1,0000.0,0001.95,0005.20,0001.75
2022-10-24 12:43:00,,0819.0,5.00,0.00,22.0,20.4,00.0,31.0,23.7,08.1,0000.0,0001.93,0004.99,0001.75
2022-10-24 12:44:00,,0819.0,5.00,0.00,22.0,20.3,00.0,31.0,23.6,08.1,0000.0,0001.95,0005.02,0001.76
2022-10-24 12:45:00,,0819.0,4.99,0.00,21.9,20.3,00.0,31.0,23.6,08.1,0000.0,0001.98,0005.13,0001.75
2022-10-24 12:46:00,,0819.1,5.02,0.00,21.9,20.2,00.0,31.0,23.6,08.1,0000.0,0002.00,0005.19,0001.75
2022-10-24 12:47:00,,0819.0,5.00,0.00,21.9,20.2,00.0,30.9,23.6,08.2,0000.0,0002.04,0005.30,0001.76
2022-10-24 12:48:00,,0819.1,5.00,0.00,21.9,20.2,00.0,30.9,23.7,08.1,0000.0,0002.05,0005.38,0001.76
2022-10-24 12:49:00,,0819.2,5.00,0.00,21.9,20.2,00.0,30.9,23.6,08.0,0000.0,0002.07,0004.29,0001.76
2022-10-24 12:50:00,,0819.2,5.00,0.00,21.9,20.2,00.0,30.9,23.6,08.0,0000.0,0002.05,0004.18,0001.76
2022-10-24 12:51:00,,0819.3,5.00,0.00,21.8,20.2,00.0,30.9,23.6,08.2,0000.0,0002.02,0004.22,0001.76
2022-10-24 12:52:00,,0819.3,5.00,0.00,21.8,20.2,00.0,30.9,23.6,08.3,0000.0,0001.98,0004.15,0001.76
2022-10-24 12:53:00,,0819.3,5.01,0.00,21.8,20.2,00.0,30.8,23.7,08.3,0000.0,0002.00,0003.40,0001.75
2022-10-24 12:54:00,,0819.2,4.98,0.00,21.8,20.3,00.0,30.8,23.7,08.3,0000.0,0002.04,0003.15,0001.76
2022-10-24 12:55:00,,0819.3,5.02,0.00,21.9,20.3,00.0,30.8,23.7,08.3,0000.0,0002.07,0003.90,0001.76
2022-10-24 12:56:00,,0819.4,4.98,0.00,21.9,20.3,00.0,30.8,23.7,08.2,0000.0,0002.07,0003.95,0001.76
2022-10-24 12:57:00,,0819.4,5.00,0.00,21.9,20.3,00.0,30.8,23.7,08.2,0000.0,0002.04,0003.96,0001.76
2022-10-24 12:58:00,,0819.4,5.00,0.00,21.9,20.4,00.0,30.8,23.8,08.1,0000.0,0002.03,0003.94,0001.76
2022-10-24 12:59:00,,0819.4,5.00,0.00,21.9,20.4,00.0,30.8,23.8,08.1,0000.0,0002.03,0003.95,0001.76
